TimeCST,TemperatureF,Dew PointF,Humidity,Sea Level PressureIn,VisibilityMPH,Wind Direction,Wind SpeedMPH,Gust SpeedMPH,PrecipitationIn,Events,Conditions,WindDirDegrees,DateUTC
12:10 AM,10.4,5.0,79,29.96,7.0,North,5.8,-,N/A,,Overcast,360,2012-12-10 06:10:00
12:29 AM,10.4,5.0,79,29.96,10.0,North,5.8,-,N/A,,Overcast,350,2012-12-10 06:29:00
12:49 AM,10.4,5.0,79,29.95,7.0,North,6.9,-,N/A,Snow,Light Snow,350,2012-12-10 06:49:00
1:10 AM,10.4,5.0,79,29.95,7.0,North,5.8,-,N/A,,Overcast,360,2012-12-10 07:10:00
1:29 AM,10.4,5.0,79,29.94,7.0,North,5.8,-,N/A,,Overcast,350,2012-12-10 07:29:00
1:49 AM,-9999,-9999,N/A,-9999,10.0,Calm,Calm,-,N/A,,Overcast,0,2012-12-10 07:49:00
2:09 AM,8.6,3.2,79,29.94,10.0,North,4.6,-,N/A,,Overcast,360,2012-12-10 08:09:00
2:50 AM,10.4,3.2,73,29.94,10.0,North,5.8,-,N/A,Snow,Light Snow,350,2012-12-10 08:50:00
3:09 AM,8.6,3.2,79,29.93,10.0,North,4.6,-,N/A,Snow,Light Snow,350,2012-12-10 09:09:00
3:30 AM,8.6,3.2,79,29.93,10.0,North,6.9,-,N/A,,Overcast,350,2012-12-10 09:30:00
3:50 AM,8.6,3.2,79,29.93,10.0,NNW,4.6,-,N/A,Snow,Light Snow,340,2012-12-10 09:50:00
4:10 AM,8.6,3.2,79,29.91,10.0,North,4.6,-,N/A,,Overcast,10,2012-12-10 10:10:00
4:30 AM,8.6,3.2,79,29.91,10.0,North,3.5,-,N/A,,Overcast,360,2012-12-10 10:30:00
4:49 AM,8.6,3.2,79,29.90,10.0,North,4.6,-,N/A,,Overcast,350,2012-12-10 10:49:00
5:10 AM,8.6,3.2,79,29.90,10.0,NNW,3.5,-,N/A,,Overcast,340,2012-12-10 11:10:00
5:30 AM,8.6,3.2,79,29.90,10.0,NNW,6.9,-,N/A,,Overcast,330,2012-12-10 11:30:00
5:49 AM,6.8,3.2,85,29.90,10.0,NW,5.8,-,N/A,,Overcast,320,2012-12-10 11:49:00
6:10 AM,5.0,1.4,85,29.90,10.0,NW,5.8,-,N/A,,Overcast,310,2012-12-10 12:10:00
6:30 AM,3.2,-0.4,85,29.91,10.0,WNW,8.1,-,N/A,,Overcast,300,2012-12-10 12:30:00
7:10 AM,3.2,-2.2,78,29.90,10.0,NW,4.6,-,N/A,,Overcast,320,2012-12-10 13:10:00
7:30 AM,3.2,-2.2,78,29.90,10.0,Calm,Calm,-,N/A,,Overcast,0,2012-12-10 13:30:00
7:49 AM,-0.4,-4.0,85,29.90,10.0,Calm,Calm,-,N/A,,Overcast,0,2012-12-10 13:49:00
8:10 AM,-0.4,-4.0,85,29.89,10.0,Calm,Calm,-,N/A,,Mostly Cloudy,0,2012-12-10 14:10:00
8:30 AM,-0.4,-4.0,85,29.89,10.0,Calm,Calm,-,N/A,,Scattered Clouds,0,2012-12-10 14:30:00
8:49 AM,-0.4,-4.0,85,29.88,10.0,Calm,Calm,-,N/A,,Clear,0,2012-12-10 14:49:00
9:10 AM,3.2,-2.2,78,29.88,10.0,Calm,Calm,-,N/A,,Clear,0,2012-12-10 15:10:00
9:30 AM,3.2,-4.0,72,29.88,10.0,NE,3.5,-,N/A,,Clear,40,2012-12-10 15:30:00
9:49 AM,3.2,-4.0,72,29.88,10.0,Calm,Calm,-,N/A,,Clear,0,2012-12-10 15:49:00
10:10 AM,3.2,-2.2,78,29.88,10.0,Calm,Calm,-,N/A,,Clear,0,2012-12-10 16:10:00
10:30 AM,5.0,-0.4,78,29.88,10.0,Calm,Calm,-,N/A,,Clear,0,2012-12-10 16:30:00
10:49 AM,5.0,-0.4,78,29.88,10.0,Calm,Calm,-,N/A,,Clear,0,2012-12-10 16:49:00
11:10 AM,6.8,-0.4,72,29.87,10.0,WSW,3.5,-,N/A,,Clear,240,2012-12-10 17:10:00
11:30 AM,8.6,1.4,73,29.86,10.0,Calm,Calm,-,N/A,,Clear,0,2012-12-10 17:30:00
11:49 AM,10.4,3.2,73,29.84,10.0,Calm,Calm,-,N/A,,Clear,0,2012-12-10 17:49:00
12:10 PM,10.4,3.2,73,29.84,10.0,West,3.5,-,N/A,,Clear,260,2012-12-10 18:10:00
12:30 PM,12.2,5.0,73,29.84,10.0,Calm,Calm,-,N/A,,Clear,0,2012-12-10 18:30:00
12:49 PM,12.2,5.0,73,29.83,10.0,Calm,Calm,-,N/A,,Clear,0,2012-12-10 18:49:00
1:10 PM,12.2,5.0,73,29.83,10.0,Calm,Calm,-,N/A,,Clear,0,2012-12-10 19:10:00
1:30 PM,14.0,5.0,67,29.83,10.0,Calm,Calm,-,N/A,,Clear,0,2012-12-10 19:30:00
1:49 PM,14.0,5.0,67,29.82,10.0,Calm,Calm,-,N/A,,Clear,0,2012-12-10 19:49:00
2:10 PM,15.8,8.6,73,29.81,10.0,Calm,Calm,-,N/A,,Clear,0,2012-12-10 20:10:00
2:29 PM,15.8,8.6,73,29.81,10.0,Calm,Calm,-,N/A,,Clear,0,2012-12-10 20:29:00
2:50 PM,15.8,8.6,73,29.81,10.0,Calm,Calm,-,N/A,,Clear,0,2012-12-10 20:50:00
3:10 PM,15.8,8.6,73,29.81,10.0,Calm,Calm,-,N/A,,Clear,0,2012-12-10 21:10:00
3:29 PM,14.0,8.6,79,29.81,10.0,Calm,Calm,-,N/A,,Clear,0,2012-12-10 21:29:00
3:49 PM,14.0,6.8,73,29.81,10.0,Calm,Calm,-,N/A,,Clear,0,2012-12-10 21:49:00
4:10 PM,10.4,5.0,79,29.81,10.0,Calm,Calm,-,N/A,,Clear,0,2012-12-10 22:10:00
4:29 PM,8.6,5.0,85,29.82,10.0,Calm,Calm,-,N/A,,Clear,0,2012-12-10 22:29:00
4:49 PM,6.8,3.2,85,29.81,10.0,Calm,Calm,-,N/A,,Clear,0,2012-12-10 22:49:00
5:10 PM,5.0,1.4,85,29.82,10.0,Calm,Calm,-,N/A,,Clear,0,2012-12-10 23:10:00
5:29 PM,3.2,-0.4,85,29.82,10.0,Calm,Calm,-,N/A,,Clear,0,2012-12-10 23:29:00
5:49 PM,3.2,-0.4,85,29.82,10.0,Calm,Calm,-,N/A,,Clear,0,2012-12-10 23:49:00
6:10 PM,1.4,-4.0,78,29.81,5.0,Calm,Calm,-,N/A,,Haze,0,2012-12-11 00:10:00
6:29 PM,1.4,-4.0,78,29.81,10.0,Calm,Calm,-,N/A,,Clear,0,2012-12-11 00:29:00
6:49 PM,-0.4,-4.0,85,29.80,10.0,Calm,Calm,-,N/A,,Clear,0,2012-12-11 00:49:00
7:10 PM,-2.2,-7.6,78,29.80,10.0,Calm,Calm,-,N/A,,Clear,0,2012-12-11 01:10:00
7:29 PM,-0.4,-4.0,85,29.80,10.0,Calm,Calm,-,N/A,,Clear,0,2012-12-11 01:29:00
7:49 PM,-0.4,-5.8,78,29.80,10.0,Calm,Calm,-,N/A,,Clear,0,2012-12-11 01:49:00
8:10 PM,-2.2,-7.6,78,29.80,10.0,Calm,Calm,-,N/A,,Clear,0,2012-12-11 02:10:00
8:49 PM,-2.2,-7.6,78,29.79,10.0,Calm,Calm,-,N/A,,Clear,0,2012-12-11 02:49:00
9:10 PM,-2.2,-7.6,78,29.79,10.0,Calm,Calm,-,N/A,,Clear,0,2012-12-11 03:10:00
9:29 PM,-2.2,-7.6,78,29.78,10.0,Calm,Calm,-,N/A,,Clear,0,2012-12-11 03:29:00
9:49 PM,-2.2,-7.6,78,-9999,10.0,Calm,Calm,-,N/A,,Clear,0,2012-12-11 03:49:00
10:10 PM,-2.2,-7.6,78,29.77,10.0,Calm,Calm,-,N/A,,Clear,0,2012-12-11 04:10:00
10:29 PM,-4.0,-9.4,78,29.77,10.0,Calm,Calm,-,N/A,,Clear,0,2012-12-11 04:29:00
10:49 PM,-5.8,-9.4,84,29.76,10.0,Calm,Calm,-,N/A,,Clear,0,2012-12-11 04:49:00
11:10 PM,-5.8,-9.4,84,29.76,10.0,Calm,Calm,-,N/A,,Scattered Clouds,0,2012-12-11 05:10:00
11:29 PM,-5.8,-11.2,77,29.76,10.0,Calm,Calm,-,N/A,,Mostly Cloudy,0,2012-12-11 05:29:00
11:50 PM,-5.8,-11.2,77,29.75,10.0,Calm,Calm,-,N/A,,Mostly Cloudy,0,2012-12-11 05:50:00